Flag Weather past 2 weeks in Delta, British Columbia, Canada

Now
45 °F

Mostly cloudy.


Feels Like: 41 °F
Forecast: 41 / 51 °F
Wind: 7 mph from East

Location: Vancouver International Air-Port

Current Time: Nov 26, 2014 at 9:50:46 AM

Latest Report: Nov 26, 2014 at 9:00 AM


Visibility: 15 mi

Pressure: 30.06 "Hg

Humidity: 100%

Dew point: 45 °F

Location of DeltaLocation

Historic Weather in Delta — Graph

°F

Delta temperature yesterday

Maximum temperature yesterday: 46 °F (at 11:00 AM)
Minimum temperature yesterday: 41 °F (at 11:00 PM)
Average temperature yesterday: 44 °F

Past Weeks' High & Low Weather Summary

 TemperatureHumidityPressure
High50 °F (Nov 20, 10:00 AM)100% (Nov 18, 3:00 AM)30.57 "Hg (Nov 18, 3:00 AM)
Low23 °F (Nov 14, 6:00 AM)25% (Nov 11, 12:00 PM)29.26 "Hg (Nov 21, 7:00 PM)
Average40 °F80%30.12 "Hg
* Reported Nov 11 8:00 AM — Nov 26 8:00 AM, Delta, Weather by CustomWeather, © 2014

Note: Actual official high and low records may vary slightly from our data, if they occured in-between our weather recording intervals... More about our weather records

Advertising

Delta weather history for previous 24 hours

 ConditionsComfort  
Time TempWeatherWind HumidityBarometerVisibility
8:00 AM
Nov 26
43 °FMostly cloudy.7 mph100%30.08 "Hg15 mi
7:00 AM43 °FMostly cloudy.5 mph100%30.08 "Hg15 mi
6:00 AM43 °FMostly cloudy.5 mph100%30.09 "Hg12 mi
5:00 AM43 °FOvercast.8 mph93%30.09 "Hg10 mi
4:00 AM43 °FLight rain. Fog.5 mph93%30.12 "Hg8 mi
3:47 AM43 °FLight rain. Mostly cloudy.6 mph93%30.11 "Hg8 mi
3:00 AM43 °FLight rain. Mostly cloudy.3 mph93%30.13 "Hg8 mi
2:00 AM43 °FLight rain. Fog.3 mph93%30.14 "Hg6 mi
1:00 AM43 °FLight rain. Fog.3 mph93%30.14 "Hg3 mi
12:00 AM43 °FDrizzle. Fog.6 mph93%30.15 "Hg3 mi
11:00 PM
Nov 25
41 °FLight rain. Fog.5 mph100%30.15 "Hg4 mi
10:47 PM43 °FLight rain. Fog.7 mph93%30.15 "Hg6 mi
10:00 PM43 °FLight rain. Fog.5 mph93%30.15 "Hg6 mi
9:00 PM43 °FRain. Fog.3 mph93%30.14 "Hg6 mi
8:00 PM43 °FRain. Fog.3 mph93%30.16 "Hg5 mi
7:00 PM43 °FRain. Fog.7 mph93%30.16 "Hg5 mi
6:00 PM43 °FRain. Overcast.3 mph100%30.17 "Hg8 mi
5:00 PM45 °FRain. Mostly cloudy.5 mph93%30.18 "Hg8 mi
4:55 PM45 °FRain. Mostly cloudy.7 mph93%30.18 "Hg7 mi
4:00 PM45 °FRain. Fog.7 mph93%30.19 "Hg5 mi
3:00 PM45 °FLight rain. Fog.3 mph93%30.21 "Hg6 mi
2:00 PM45 °FLight rain. Fog.No wind93%30.21 "Hg4 mi
1:55 PM45 °FLight rain. Fog.No wind93%30.22 "Hg6 mi
1:00 PM45 °FLight rain. Mostly cloudy.7 mph93%30.23 "Hg7 mi
12:00 PM45 °FLight rain. Mostly cloudy.6 mph100%30.24 "Hg7 mi
11:00 AM46 °FLight rain. Fog.3 mph93%30.23 "Hg5 mi
10:00 AM45 °FLight rain. Mostly cloudy.2 mph93%30.24 "Hg12 mi
9:00 AM45 °FLight rain. Cloudy.No wind93%30.23 "Hg15 mi
Weather by CustomWeather, © 2014

See weather overviewHow to use our weather pages